Ord, NE

10:00 PM CST on February 12, 2016 (GMT -0600)
Sharp

Weather History for KODX - September, 2014

Change the Weather History Date:

Tuesday, September 23, 2014

  Actual Average Record
Temperature  
Mean Temperature 64 °F 60 °F  
Max Temperature 73 °F 75 °F 90 °F (1999)
Min Temperature 55 °F 45 °F 30 °F (2012)
Degree Days  
Heating Degree Days 1 6  
Month to date heating degree days 137 68  
Since 1 July heating degree days 156 82  
Cooling Degree Days 0 1  
Month to date cooling degree days 35 75  
Year to date cooling degree days 670 832  
Growing Degree Days 13 (Base 50)    
Moisture  
Dew Point 56 °F    
Average Humidity 77    
Maximum Humidity 93    
Minimum Humidity 61    
Precipitation  
Precipitation 0.30 in 0.08 in 1.62 in (2015)
Month to date precipitation 1.67 1.99  
Year to date precipitation 19.31 20.90  
Sea Level Pressure  
Sea Level Pressure 30.03 in    
Wind  
Wind Speed 12 mph (SSE)    
Max Wind Speed 17 mph    
Max Gust Speed 24 mph    
Visibility 9 miles    
Events Rain , Thunderstorm    
T = Trace of Precipitation, MM = Missing Value Source: NWS Daily Summary

Daily Weather History Graph

Daily Weather History Graph

Search for Another Location

Airport or City:

Trip Planner

Search our weather history database for the weather conditions in past years. The results will help you decide how hot, cold, wet, or windy it might be!

Date:

Astronomy

Sep. 23, 2014 Rise Set
Actual Time 7:24 AM CDT 7:31 PM CDT
Civil Twilight 6:56 AM CDT 7:58 PM CDT
Nautical Twilight 6:24 AM CDT 8:31 PM CDT
Astronomical Twilight 5:51 AM CDT 9:04 PM CDT
Moon 6:49 AM CDT (9/23) 7:10 PM CDT (9/23)
Length of Visible Light 13h 02m
Length of Day
12h 06m
Waning Crescent, 0% of the Moon is Illuminated
Sep 23
Waning Crescent
Sep 24
New
Oct 1
First Quarter
Oct 8
Full
Oct 15
Last Quarter

Hourly Weather History & Observations

Time (CDT) Temp. Dew Point Humidity Pressure Visibility Wind Dir Wind Speed Gust Speed Precip Events Conditions
12:53 AM 57.9 °F 55.0 °F 90% 30.09 in 6.0 mi South 10.4 mph 19.6 mph 0.02 in Rain Light Rain
1:53 AM 57.0 °F 54.0 °F 89% 30.09 in 10.0 mi SE 8.1 mph - 0.02 in   Overcast
2:53 AM 57.9 °F 52.0 °F 81% 30.08 in 10.0 mi SE 11.5 mph - N/A   Mostly Cloudy
3:44 AM 57.0 °F 52.0 °F 83% 30.08 in 10.0 mi SSE 10.4 mph - N/A   Overcast
3:53 AM 57.0 °F 53.1 °F 87% 30.07 in 10.0 mi SE 8.1 mph - N/A   Overcast
4:28 AM 55.9 °F 53.1 °F 90% 30.08 in 8.0 mi SE 10.4 mph - 0.01 in Rain Light Rain
4:53 AM 55.9 °F 54.0 °F 93% 30.06 in 6.0 mi SE 9.2 mph - 0.03 in Rain Rain
5:18 AM 55.4 °F 53.6 °F 94% 30.07 in 8.0 mi SE 10.4 mph - N/A Rain Light Rain
5:42 AM 55.0 °F 54.0 °F 96% 30.07 in 5.0 mi SE 8.1 mph - 0.08 in Rain Rain
5:53 AM 55.0 °F 54.0 °F 96% 30.06 in 6.0 mi SSE 8.1 mph - 0.10 in Rain Light Rain
6:06 AM 55.9 °F 54.0 °F 93% 30.07 in 6.0 mi SSE 11.5 mph - 0.02 in Rain Rain
6:15 AM 55.9 °F 54.0 °F 93% 30.07 in 6.0 mi SSE 9.2 mph - 0.04 in Rain Light Rain
6:53 AM 55.9 °F 54.0 °F 93% 30.05 in 10.0 mi SE 8.1 mph - 0.05 in   Overcast
7:20 AM 55.9 °F 54.0 °F 93% 30.05 in 10.0 mi SE 8.1 mph - 0.00 in Rain Light Rain
7:53 AM 55.9 °F 54.0 °F 93% 30.06 in 10.0 mi SSE 11.5 mph - 0.00 in   Overcast
8:08 AM 55.9 °F 54.0 °F 93% 30.06 in 10.0 mi SSE 15.0 mph - N/A   Overcast
8:20 AM 55.9 °F 54.0 °F 93% 30.06 in 10.0 mi SSE 9.2 mph 18.4 mph N/A   Overcast
8:40 AM 55.9 °F 54.0 °F 93% 30.06 in 10.0 mi SSE 11.5 mph - N/A   Overcast
8:53 AM 55.9 °F 54.0 °F 93% 30.06 in 10.0 mi SSE 11.5 mph - N/A   Overcast
9:53 AM 57.0 °F 54.0 °F 89% 30.06 in 10.0 mi SSE 12.7 mph - N/A   Overcast
10:53 AM 59.0 °F 55.9 °F 90% 30.05 in 10.0 mi SSE 12.7 mph - N/A   Overcast
11:22 AM 59.0 °F 55.9 °F 90% 30.04 in 10.0 mi SSE 10.4 mph 19.6 mph N/A   Overcast
11:53 AM 61.0 °F 55.9 °F 83% 30.03 in 10.0 mi SSE 11.5 mph 21.9 mph N/A   Overcast
12:39 PM 62.1 °F 55.9 °F 80% 30.02 in 10.0 mi South 13.8 mph - N/A   Overcast
12:53 PM 63.0 °F 55.9 °F 78% 30.02 in 10.0 mi South 16.1 mph 21.9 mph N/A   Overcast
1:53 PM 64.9 °F 57.0 °F 75% 29.99 in 10.0 mi South 17.3 mph 23.0 mph N/A   Overcast
2:53 PM 69.1 °F 57.9 °F 68% 29.96 in 10.0 mi SSE 15.0 mph 21.9 mph N/A   Mostly Cloudy
3:53 PM 71.1 °F 57.9 °F 63% 29.95 in 10.0 mi South 15.0 mph - N/A   Mostly Cloudy
4:53 PM 70.0 °F 57.9 °F 65% 29.95 in 10.0 mi SSE 13.8 mph 20.7 mph N/A   Mostly Cloudy
5:53 PM 69.1 °F 57.9 °F 68% 29.95 in 10.0 mi SSE 11.5 mph - N/A   Partly Cloudy
6:53 PM 66.0 °F 59.0 °F 78% 29.95 in 10.0 mi SSE 12.7 mph - 0.01 in Rain Light Rain
7:09 PM 64.4 °F 59.0 °F 83% 29.96 in 10.0 mi SSE 11.5 mph - N/A Rain , Thunderstorm Light Thunderstorms and Rain
7:24 PM 63.0 °F 59.0 °F 87% 29.96 in 10.0 mi SE 12.7 mph - 0.02 in Rain , Thunderstorm Light Rain
7:45 PM 62.1 °F 59.0 °F 90% 29.95 in 8.0 mi SE 13.8 mph 19.6 mph 0.05 in Rain Light Rain
7:53 PM 62.1 °F 59.0 °F 90% 29.96 in 8.0 mi SSE 17.3 mph - 0.06 in Rain Light Rain
8:53 PM 62.1 °F 57.9 °F 86% 30.00 in 7.0 mi SSE 10.4 mph 18.4 mph 0.03 in Rain Light Rain
9:53 PM 61.0 °F 57.9 °F 90% 30.00 in 10.0 mi SSE 13.8 mph 20.7 mph 0.00 in   Overcast
10:53 PM 60.1 °F 57.9 °F 93% 30.00 in 10.0 mi SSE 10.4 mph - N/A   Overcast
11:00 PM 60.1 °F 57.9 °F 93% 30.01 in 10.0 mi SSE 8.1 mph - N/A   Overcast
11:21 PM 60.1 °F 57.9 °F 93% 30.01 in 10.0 mi SSE 6.9 mph - N/A   Mostly Cloudy
11:37 PM 60.1 °F 57.9 °F 93% 30.01 in 10.0 mi SSE 5.8 mph - N/A   Scattered Clouds
11:53 PM 60.1 °F 57.9 °F 93% 30.01 in 10.0 mi SE 4.6 mph - N/A   Clear